This demonstration page uses our WeatherBlox Daily Observations layout. Learn more.

Left ArrowRight Arrow

Hourly Observations for April 25, 2022

Temp ( °F °C ) Dew Point ( °F °C ) Humidity (%) Winds ( mph kmh ) Pressure ( in mb ) Visibility ( mi km ) Precip ( " mm )
12:53 am 00:53 Clear 55 12.8 45 7.2 69 69 Calm 30.03 1017 10 16 0.00 0.00
1:53 am 01:53 Clear 53 11.7 44 6.7 72 72 Calm 30.03 1017 10 16 0.00 0.00
2:53 am 02:53 Clear 53 11.7 43 6.1 69 69 NNW 3 6 30.02 1017 10 16 0.00 0.00
3:53 am 03:53 Clear 53 11.7 44 6.7 72 72 Calm 30.02 1017 10 16 0.00 0.00
4:53 am 04:53 Clear 52 11.1 43 6.1 72 72 NW 3 6 30.03 1017 10 16 0.00 0.00
5:53 am 05:53 Clear 51 10.6 43 6.1 74 74 WSW 3 6 30.02 1017 10 16 0.00 0.00
6:53 am 06:53 Sunny 51 10.6 45 7.2 80 80 Calm 30.03 1017 10 16 0.00 0.00
7:53 am 07:53 Sunny 54 12.2 46 7.8 75 75 Calm 30.04 1017 10 16 0.00 0.00
8:53 am 08:53 Sunny 60 15.6 46 7.8 60 60 N 6 9 30.04 1017 10 16 0.00 0.00
9:53 am 09:53 Sunny 63 17.2 46 7.8 54 54 Calm 30.04 1017 10 16 0.00 0.00
10:53 am 10:53 Sunny 68 20 42 5.6 39 39 VRB 3 6 30.02 1017 10 16 0.00 0.00
11:53 am 11:53 Sunny 71 21.7 40 4.4 32 32 S 5 7 30.01 1016 10 16 0.00 0.00
12:53 pm 12:53 Sunny 74 23.3 41 5 31 31 VRB 6 9 29.99 1016 10 16 0.00 0.00
1:53 pm 13:53 Sunny 75 23.9 40 4.4 28 28 S 15 24 29.97 1015 10 16 0.00 0.00
2:53 pm 14:53 Sunny 76 24.4 41 5 29 29 SSW 5 7 29.95 1014 10 16 0.00 0.00
3:53 pm 15:53 Sunny 78 25.6 40 4.4 26 26 S 10 17 29.92 1013 10 16 0.00 0.00
4:53 pm 16:53 Sunny 79 26.1 41 5 26 26 SSW 12 19 29.89 1012 10 16 0.00 0.00
5:53 pm 17:53 Cloudy 76 24.4 41 5 29 29 S 6 9 29.88 1012 10 16 0.00 0.00
6:53 pm 18:53 Partly Cloudy 73 22.8 42 5.6 33 33 WNW 7 11 29.88 1012 10 16 0.00 0.00
7:53 pm 19:53 Cloudy with Light Rain 68 20 48 8.9 49 49 WNW 9 15 29.88 1012 7 11 0.00 0.00
8:53 pm 20:53 Cloudy 69 20.6 48 8.9 47 47 Calm 29.88 1012 10 16 0.00 0.00
9:53 pm 21:53 Cloudy 66 18.9 51 10.6 59 59 N 8 13 29.88 1012 10 16 0.00 0.00
10:53 pm 22:53 Cloudy 65 18.3 50 10 59 59 NNW 3 6 29.90 1013 10 16 0.00 0.00
11:53 pm 23:53 Cloudy 65 18.3 50 10 59 59 NE 6 9 29.91 1013 10 16 0.00 0.00

Powered by AerisWeather